[[{"header":{"parameterUnit":"m.s-1","parameterCategory":1,"la1":30.2991,"la2":30.254,"lo1":-89.0895,"lo2":-89.0444,"dy":0.0017,"dx":0.0017,"nx":28,"ny":28,"refTime":"2024-07-04T03:00:00:Z","depth":0,"parameterNumber":2,"parameterNumberName":"U-component_of_WINDS"},"data":[0,0,0,0,0,0,0,0,0,0,0,0,0,0,0,0,0,0,0,0,0,0,0,0,0,0,0,0,0,0,0,0,0,0,0,0,0,0,0,0,0,0,0,0,0,0,0,0,0,0,0,0,0,0,0,0,0,0,1.035,1.0351,0,1.05,1.0502,1.0503,1.0592,1.0592,1.0593,1.0593,1.0749,1.0753,1.0757,0,0,0,0,0,0,0,0,0,0,0,0,0,1.0142,1.0145,1.0349,1.0351,1.0353,1.05,1.0502,1.0504,1.0592,1.0592,1.0593,1.0593,1.0748,1.0753,1.0757,0,0,0,0,0,0,0,0,0,0,0,0,0,1.0256,1.0146,1.0349,1.0415,1.0422,1.0499,1.0502,1.0504,1.0592,1.0592,1.0593,1.0593,1.0747,1.0752,1.0758,1.0782,0,0,1.0775,1.0778,0,0,0,0,0,0,0,0,1.0249,1.0263,1.0403,1.041,1.0419,1.0528,1.0486,1.0598,1.0592,1.0527,1.0593,1.0594,1.0675,1.0687,1.0714,1.0789,1.0796,1.0776,1.0779,1.0782,1.0783,0,0,0,0,0,0,0,1.0241,1.0258,1.0409,1.0405,1.0415,1.0438,1.0455,1.0508,1.0596,1.0533,1.054,1.0556,1.068,1.0708,1.0718,1.0798,1.0776,1.0781,1.0784,1.0786,1.0904,1.0904,0,0,0,0,0,0,1.0223,1.025,1.0404,1.0414,1.0334,1.0441,1.046,1.0492,1.0596,1.0612,1.0556,1.056,1.0698,1.0712,1.0724,1.0761,1.0782,1.0787,1.079,1.0904,1.0904,1.0904,0,0,0,0,0,0,1.0218,1.0235,1.0398,1.0334,1.0356,1.0444,1.048,1.0495,1.0524,1.0613,1.063,1.0568,1.0699,1.0716,1.0767,1.0767,1.079,1.0795,1.0905,1.0904,1.0904,1.0833,0,0,0,0,0,0,1.0211,1.0233,1.0242,1.0333,1.0359,1.0437,1.048,1.0497,1.0533,1.054,1.0629,1.0645,1.0701,1.0758,1.0773,1.0776,1.0799,1.0905,1.0905,1.0904,1.0836,1.083,1.0825,0,0,0,0,0,1.0204,1.0216,1.0242,1.026,1.0372,1.0437,1.0452,1.0516,1.0532,1.0543,1.0601,1.0642,1.0765,1.0763,1.078,1.0784,1.0905,1.0905,1.0904,1.0838,1.0831,1.0826,0,0,0,0,0,0,1.0122,1.0229,1.0259,1.0301,1.036,1.0452,1.0467,1.0506,1.0561,1.0566,1.0643,1.0663,1.0707,1.0751,1.0747,1.0815,1.084,1.0843,1.0784,1.0778,1.0773,1.0762,1.0804,0,0,0,0,0,1.0109,1.0152,1.0244,1.0272,1.03,1.0378,1.0409,1.0453,1.0517,1.0542,1.0604,1.0665,1.0718,1.075,1.0804,1.0843,1.0865,1.0855,1.085,1.0845,1.0846,1.0872,1.0869,1.0901,1.0901,1.0901,0,0,1.0083,1.0147,1.0169,1.0258,1.0308,1.0352,1.0398,1.0442,1.0476,1.0549,1.0601,1.0649,1.0722,1.0768,1.0791,1.0806,1.0843,1.0844,1.084,1.0844,1.0871,1.0868,1.0865,1.0901,1.0901,1.0901,0,0,1.0057,1.0109,1.0139,1.0189,1.0265,1.0318,1.0325,1.0412,1.0446,1.05,1.0556,1.0598,1.0687,1.0738,1.0775,1.0771,1.0811,1.0786,1.0759,1.0784,1.0781,1.0779,1.0779,1.0778,1.0787,1.0787,1.0787,0,1.0014,1.0082,1.015,1.0191,1.0229,1.0298,1.033,1.0375,1.0465,1.049,1.0506,1.062,1.0674,1.0733,1.0732,1.076,1.0772,1.0776,1.0776,1.0775,1.0774,1.0774,1.0774,1.0784,1.0784,1.0785,1.0785,0,1.0027,1.0073,1.0089,1.0173,1.0213,1.025,1.0325,1.0357,1.0399,1.045,1.0505,1.0573,1.0642,1.066,1.07,1.0725,1.0733,1.0761,1.0788,1.0766,1.0768,1.0769,1.0779,1.078,1.0781,1.0782,0,0,0.9952,1.0075,1.008,1.012,1.021,1.0248,1.0289,1.0356,1.0383,1.0443,1.048,1.0555,1.0582,1.0624,1.0672,1.0693,1.0687,1.072,1.0723,1.0712,1.0721,1.0699,1.0698,1.0715,1.0715,1.0716,1.0715,0,0.9939,1.0015,1.0078,1.0131,1.0175,1.0242,1.0278,1.0338,1.0388,1.0434,1.0489,1.0541,1.0573,1.0599,1.0623,1.0683,1.069,1.0684,1.0751,1.0753,1.073,1.0699,1.0675,1.0671,1.0716,1.0716,1.0717,0,0.9934,0.9992,1.0049,1.0136,1.0157,1.0188,1.0256,1.0299,1.0369,1.0404,1.0452,1.0502,1.055,1.0573,1.064,1.0634,1.0666,1.07,1.0701,1.071,1.0733,1.0707,1.0672,1.0671,1.0718,1.0718,1.0718,0,0.9875,0.9967,1.0013,1.0046,1.0149,1.0169,1.0213,1.0284,1.0321,1.0381,1.0407,1.0471,1.0507,1.0556,1.0623,1.0633,1.0684,1.0712,1.0716,1.0714,1.0723,1.0721,1.0692,1.0743,1.0743,1.0743,1.0743,0,0.9854,0.9886,0.9988,1.0016,1.0056,1.013,1.0166,1.0216,1.0279,1.032,1.0382,1.0419,1.0505,1.0552,1.0605,1.0654,1.067,1.07,1.0714,1.0694,1.069,1.0716,1.0718,1.0743,1.0743,1.0743,1.0743,0,0.9793,0.9863,0.9918,1.0012,1.0036,1.0061,1.0142,1.0173,1.0227,1.0277,1.0294,1.0379,1.0438,1.051,1.0593,1.0629,1.0673,1.0693,1.0648,1.0656,1.0656,1.0655,1.0642,1.0645,1.0693,1.0692,1.0692,0,0.9775,0.9802,0.9899,0.993,0.9973,1.0022,1.0061,1.0136,1.0174,1.0257,1.0279,1.0343,1.0398,1.0491,1.0561,1.0625,1.0647,1.0639,1.0657,1.0638,1.0648,1.0646,1.0649,1.0633,1.0632,1.0632,1.0631,0,0.9736,0.977,0.9823,0.9889,0.9933,0.9989,1.0047,1.0069,1.0156,1.0196,1.0258,1.0301,1.0386,1.045,1.0523,1.057,1.0615,1.0625,1.0629,1.061,1.0583,1.0598,1.0635,1.0625,1.0625,1.0626,1.0626,1.0626,0.9696,0.9724,0.9797,0.9855,0.9907,0.996,0.9995,1.0054,1.0106,1.0181,1.0223,1.0284,1.0356,1.046,1.0505,1.0555,1.0571,1.0577,1.0578,1.0579,1.0573,1.0575,1.0568,1.0569,1.0569,1.0569,1.0569,0,0.9661,0.9712,0.9764,0.9844,0.989,0.993,0.9997,1.0033,1.0085,1.0149,1.0203,1.0275,1.0337,1.0413,1.0481,1.0506,1.0529,1.0522,1.052,1.0531,1.0555,1.0544,1.0502,1.0502,1.0502,1.0502,1.0502,1.0502,0.9648,0.9697,0.974,0.9816,0.9867,0.9927,0.9963,1.0013,1.0064,1.0142,1.0194,1.0243,1.0312,1.0386,1.0446,1.0467,1.0489,1.0475,1.0502,1.0523,1.0529,1.0534,1.0525,1.048,1.048,1.0475,1.0474,1.0474]},{"header":{"parameterUnit":"m.s-1","parameterCategory":1,"la1":30.2991,"la2":30.254,"lo1":-89.0895,"lo2":-89.0444,"dy":0.0017,"dx":0.0017,"nx":28,"ny":28,"refTime":"2024-07-04T03:00:00:Z","depth":0,"parameterNumber":3,"parameterNumberName":"V-component_of_WINDS"},"data":[0,0,0,0,0,0,0,0,0,0,0,0,0,0,0,0,0,0,0,0,0,0,0,0,0,0,0,0,0,0,0,0,0,0,0,0,0,0,0,0,0,0,0,0,0,0,0,0,0,0,0,0,0,0,0,0,0,0,4.21,4.21,0,4.2149,4.2149,4.215,4.2151,4.215,4.2149,4.2149,4.2193,4.2195,4.2197,0,0,0,0,0,0,0,0,0,0,0,0,0,4.1999,4.2001,4.2099,4.21,4.2101,4.2149,4.2149,4.215,4.2151,4.215,4.2149,4.2149,4.2193,4.2195,4.2197,0,0,0,0,0,0,0,0,0,0,0,0,0,4.2045,4.2002,4.2099,4.2107,4.2108,4.2149,4.2149,4.215,4.2151,4.215,4.2149,4.2148,4.2192,4.2194,4.2197,4.2231,0,0,4.2205,4.2206,0,0,0,0,0,0,0,0,4.2042,4.2049,4.2105,4.2107,4.2108,4.2143,4.213,4.2177,4.2151,4.2134,4.2149,4.2148,4.2177,4.2181,4.2192,4.2233,4.2235,4.2205,4.2207,4.2208,4.2209,0,0,0,0,0,0,0,4.2039,4.2046,4.2119,4.2106,4.2108,4.2106,4.2111,4.2139,4.216,4.2136,4.2136,4.2142,4.2177,4.2189,4.2193,4.2236,4.2205,4.2208,4.2209,4.221,4.2307,4.2308,0,0,0,0,0,0,4.2035,4.2044,4.2117,4.212,4.2073,4.2108,4.2114,4.2132,4.216,4.2163,4.2143,4.2142,4.2185,4.219,4.2194,4.2236,4.2208,4.221,4.2212,4.2306,4.2307,4.2308,0,0,0,0,0,0,4.2033,4.2042,4.2115,4.2082,4.2091,4.2111,4.2131,4.2134,4.2146,4.2165,4.2168,4.2152,4.2184,4.219,4.2222,4.2237,4.2212,4.2214,4.2305,4.2306,4.2308,4.2319,0,0,0,0,0,0,4.203,4.2041,4.2056,4.2083,4.2093,4.2145,4.2132,4.2135,4.2151,4.215,4.2174,4.2177,4.2184,4.2218,4.2225,4.224,4.2216,4.2303,4.2305,4.2307,4.2317,4.2321,4.2324,0,0,0,0,0,4.2027,4.2056,4.2057,4.2066,4.2113,4.2145,4.2151,4.2161,4.2152,4.2166,4.2178,4.2176,4.2235,4.2222,4.2229,4.2245,4.2302,4.2305,4.2307,4.2316,4.232,4.2324,0,0,0,0,0,0,4.2029,4.206,4.2061,4.21,4.212,4.2146,4.2164,4.2165,4.2186,4.2185,4.2193,4.2199,4.223,4.2241,4.2226,4.2279,4.2267,4.2271,4.2272,4.2276,4.2279,4.2275,4.2218,0,0,0,0,0,4.2034,4.206,4.2085,4.2117,4.2127,4.2144,4.2158,4.2164,4.2185,4.2193,4.2207,4.2225,4.2248,4.2262,4.2284,4.2319,4.2323,4.2334,4.2337,4.2339,4.2342,4.2361,4.2365,4.2316,4.2316,4.2316,0,0,4.2044,4.2065,4.2081,4.2118,4.2134,4.2159,4.2151,4.2178,4.2196,4.2196,4.2228,4.2239,4.2259,4.2293,4.2308,4.2303,4.2357,4.2342,4.2344,4.2346,4.2364,4.2368,4.2372,4.2317,4.2317,4.2317,0,0,4.2077,4.2095,4.2124,4.2141,4.2167,4.2177,4.2184,4.2209,4.2217,4.2249,4.225,4.227,4.2308,4.2323,4.2336,4.2373,4.2371,4.2379,4.2395,4.2413,4.2417,4.2421,4.2434,4.2438,4.2382,4.2382,4.2382,0,4.2086,4.2126,4.2138,4.2166,4.2181,4.2184,4.2212,4.2227,4.2257,4.2267,4.2261,4.2309,4.2323,4.236,4.2369,4.2379,4.2386,4.2377,4.2416,4.242,4.2423,4.2436,4.244,4.2383,4.2383,4.2383,4.2383,0,4.2136,4.2164,4.2183,4.2215,4.2233,4.226,4.2274,4.229,4.2294,4.2304,4.2336,4.2353,4.2378,4.2387,4.239,4.2424,4.242,4.2415,4.2403,4.2429,4.244,4.2445,4.2384,4.2384,4.2384,4.2384,0,0,4.2171,4.221,4.2216,4.2231,4.2259,4.2279,4.2306,4.2332,4.2345,4.2366,4.2387,4.242,4.2415,4.2429,4.2434,4.245,4.2478,4.2443,4.2443,4.2448,4.2515,4.2519,4.2524,4.2477,4.2478,4.2478,4.2513,0,4.2207,4.2257,4.2268,4.231,4.2335,4.2337,4.236,4.2379,4.2389,4.241,4.242,4.2443,4.2436,4.2444,4.246,4.2471,4.2491,4.2468,4.2495,4.2496,4.2491,4.253,4.2535,4.2567,4.2518,4.2519,4.2519,0,4.2255,4.2279,4.2324,4.2349,4.2359,4.238,4.2405,4.2425,4.2445,4.2452,4.2468,4.247,4.2496,4.2483,4.2517,4.2502,4.2513,4.252,4.2521,4.2524,4.2509,4.2534,4.2577,4.2582,4.2526,4.2526,4.2525,0,4.2276,4.2319,4.2352,4.2363,4.2393,4.2407,4.242,4.244,4.2455,4.2475,4.2485,4.2507,4.252,4.2536,4.2544,4.2534,4.2578,4.2565,4.2583,4.2582,4.2592,4.2591,4.2638,4.2599,4.2599,4.2599,4.2599,0,4.2314,4.2341,4.2361,4.2382,4.2412,4.2423,4.2452,4.2464,4.2481,4.2502,4.2505,4.2524,4.2533,4.2553,4.2559,4.2587,4.2592,4.2597,4.2598,4.2597,4.2596,4.2604,4.2602,4.26,4.26,4.26,4.2599,0,4.2343,4.2357,4.2393,4.2419,4.2426,4.2447,4.2467,4.2486,4.2496,4.2522,4.2529,4.2544,4.2568,4.2578,4.2606,4.261,4.2641,4.2641,4.2635,4.2636,4.2653,4.2651,4.2706,4.2713,4.267,4.267,4.267,0,4.2366,4.2388,4.2416,4.2432,4.2445,4.2469,4.2485,4.2496,4.2512,4.2536,4.2551,4.2576,4.2596,4.2633,4.2645,4.2666,4.2666,4.2684,4.2669,4.2667,4.2667,4.2665,4.2667,4.2687,4.2687,4.2688,4.2688,0,4.2407,4.2413,4.2437,4.2463,4.2483,4.2503,4.2523,4.2535,4.2548,4.2565,4.2591,4.2606,4.2636,4.2659,4.2682,4.2692,4.2692,4.2692,4.2697,4.2696,4.2693,4.2695,4.2643,4.2691,4.2691,4.269,4.269,4.269,4.2434,4.2453,4.2476,4.2502,4.2519,4.2537,4.2556,4.2569,4.2591,4.2618,4.2622,4.2649,4.2667,4.2697,4.2708,4.2728,4.2723,4.2731,4.2733,4.2734,4.2736,4.2689,4.2732,4.2732,4.2732,4.2732,4.2732,0,4.2474,4.2489,4.2514,4.2543,4.2563,4.2562,4.2584,4.26,4.2625,4.2643,4.2663,4.2691,4.2714,4.2728,4.275,4.2763,4.2764,4.2769,4.2768,4.277,4.2739,4.2732,4.2768,4.2768,4.2768,4.2768,4.2768,4.2768,4.2498,4.2531,4.2539,4.2579,4.2593,4.2622,4.2634,4.265,4.2665,4.2697,4.2717,4.2727,4.2743,4.2766,4.2786,4.279,4.2798,4.2803,4.2806,4.2776,4.2772,4.2769,4.2763,4.2805,4.2805,4.2836,4.2837,4.2837]}]]